Regional Weather Roundup
Issued by NWS

Home | Current Version | Previous Version | Graphics & Text | Print | Product List | Glossary On
Versions: 1 2 3 4 5 6 7 8 9 10 11 12 13 14 15 16 17 18 19 20 21 22 23 24 25 26 27 28 29 30 31 32 33 34 35 36 37 38 39 40 41 42 43 44 45 46 47 48 49 50
000
ASUS43 KLOT 222308
RWRIL

ILLINOIS REGIONAL WEATHER ROUNDUP
NATIONAL WEATHER SERVICE CHICAGO/ROMEOVILLE IL
600 PM CDT SAT APR 22 2017

NOTE: "FAIR" INDICATES FEW OR NO CLOUDS BELOW 12,000 FEET WITH NO
SIGNIFICANT WEATHER AND/OR OBSTRUCTIONS TO VISIBILITY.

* THESE STATIONS ARE NOT UNDER NWS QUALITY CONTROL. THEY ALSO MAY NOT
  REPORT WEATHER SUCH AS PRECIPITATION OR FOG.

ILZ001-002-007-009-015-016-024-230000-
NORTHWEST ILLINOIS

CITY           SKY/WX    TMP DP  RH WIND       PRES   REMARKS
MOLINE         SUNNY     64  29  26 NE12      30.14R
STERLING*      SUNNY     63  32  31 NE8       30.15R
SAVANNA*       SUNNY     64  31  29 NE8       30.15S
$$

ILZ003-004-008-010-011-017-018-230000-
NORTH CENTRAL ILLINOIS

CITY           SKY/WX    TMP DP  RH WIND       PRES   REMARKS
ROCKFORD       MOSUNNY   63  27  25 E7        30.17R
FREEPORT*      SUNNY     61  32  32 NE7       30.17S
ROCHELLE*      SUNNY     61  30  31 NE10      30.15S
DE KALB*       SUNNY     60  26  27 NE12      30.16S
PERU*          SUNNY     60  24  25 NE13G18   30.14S
$$

ILZ005-006-012>014-019>023-230000-
NORTHEAST ILLINOIS

CITY           SKY/WX    TMP DP  RH WIND       PRES   REMARKS
CHICAGO-OHARE  MOSUNNY   58  20  22 N13       30.16S
CHICAGO-MIDWAY MOSUNNY   57  23  26 N14       30.15F
AURORA         SUNNY     61  23  23 NE13      30.15F
LANSING*       MOSUNNY   53  32  46 N9        30.16S
JOLIET*        SUNNY     60  24  25 NE10      30.15R
WAUKEGAN       SUNNY     55  20  25 N7        30.16F
DUPAGE AIRPORT SUNNY     59  21  23 NE13      30.15S
KANKAKEE*      SUNNY     58  30  34 NE12G17   30.13R
WHEELING       SUNNY     57  22  25 NE7       30.18S
MORRIS*        SUNNY     60  21  22 NE7       30.13S
ROMEOVILLE*    SUNNY     58  30  35 NE10      30.15R
NORTHERLY ISL    N/A     50  31  48 N14         N/A
$$

LMZ740>746-230000-
SOUTHERN LAKE MICHIGAN

STATION/POSITION SKY/WX   TEMP    WIND        PRES    VSBY  WAVE
                          AIR SEA DIR/SP/G                  HT/PER
                          (F)     (DEG/KT/KT) (MB)    (MI)  (FT/S)
HARRISON CRIB              47     350/ 13/ 15   N/A
BURNHAM HARBOR             50     340/ 11/ 13   N/A
CALUMET HARBOR             48     340/ 13/ 16 1020.9F
BURNS HARBOR               45      20/  9/ 11 1021.7F
MICHIGAN CITY              44      10/  9/ 10   N/A
ST. JOSEPH                 46 48   40/ 12/ 16 1022.1          3/ 4
$$

ILZ025>027-034>036-040-047-049-050-058-095>099-230000-
WEST-CENTRAL ILLINOIS

CITY           SKY/WX    TMP DP  RH WIND       PRES   REMARKS
QUINCY         SUNNY     63  33  32 NE16      30.09S
GALESBURG*     SUNNY     62  31  31 NE13      30.12S
MACOMB*        SUNNY     63  32  31 NE15G21   30.13S
JACKSONVILLE*  SUNNY     61  33  35 N10G24    30.08R
PITTSFIELD*    MOSUNNY   62  35  36 NE10G20   30.08S
$$

ILZ028>032-037-038-041>044-048-051>054-059>061-230000-
CENTRAL ILLINOIS

CITY           SKY/WX    TMP DP  RH WIND       PRES   REMARKS
PONTIAC        SUNNY     62  25  24 NE18      30.13R
BLOOMINGTON    SUNNY     61  30  31 NE17      30.11R
DECATUR        MOSUNNY   60  34  37 E21G28    30.05S
PEORIA         SUNNY     63  27  25 NE9       30.11R
LACON*         SUNNY     62  28  27 NE10G18   30.12R
LINCOLN*       SUNNY     63  35  35 N16G22    30.08S
SPRINGFIELD    SUNNY     63  32  31 NE17      30.06F
TAYLORVILLE    SUNNY     62  32  33 NE18G26   30.05S
$$

ILZ033-039-045-046-055>057-062-063-230000-
EAST-CENTRAL ILLINOIS

CITY           SKY/WX    TMP DP  RH WIND       PRES   REMARKS
CHAMPAIGN      CLOUDY    60  30  32 NE17      30.06F
RANTOUL*       MOSUNNY   64  31  29 NE17      30.08S
MATTOON        MOSUNNY   58  36  43 E17       30.04R
PARIS*         PTSUNNY   58  34  40 NE18G24   30.06S
$$

ILZ079-100>102-230000-
SOUTHWEST ILLINOIS

CITY           SKY/WX    TMP DP  RH WIND       PRES   REMARKS
ALTON          PTSUNNY   59  36  41 NE14G21   30.04R
BELLEVILLE     CLOUDY    59  40  49 NE10      30.02F
CAHOKIA*       PTSUNNY   59  36  42 NE14G21   30.03S
SPARTA*        CLOUDY    52  46  80 NE7       30.03S
$$

ILZ064>066-069>071-074>076-080>082-084>086-088>090-092>094-230000-
SOUTH-CENTRAL ILLINOIS

CITY           SKY/WX    TMP DP  RH WIND       PRES   REMARKS
CARBONDALE     CLOUDY    52  47  83 NE9       30.00R
CAIRO*         CLOUDY    54  48  81 N13G18    29.95R
EFFINGHAM*     CLOUDY    57  39  51 NE8       30.05S
MARION         CLOUDY    54  50  87 NE12      29.99S
MT. VERNON     LGT RAIN  54  42  64 NE10      30.01F
CENTRALIA*     CLOUDY    55  42  60 NE6       30.02S
SALEM*         CLOUDY    56  38  50 NE8       30.03R
METROPOLIS*    CLOUDY    55  49  78 N8        29.96R
$$

ILZ067-068-072-073-078-083-087-091-230000-
SOUTHEAST ILLINOIS

CITY           SKY/WX    TMP DP  RH WIND       PRES   REMARKS
LAWRENCEVILLE  MOSUNNY   58  40  51 NE16G23   30.01S
FLORA*         SUNNY     57  40  53 NE13      30.02S
FAIRFIELD*     CLOUDY    56  43  62 N6        29.99F
HARRISBURG*    CLOUDY    55  47  75 NE12G20   29.98F
ROBINSON*      MOSUNNY   57  39  51 NE17G23   30.03S
CARMI*         CLOUDY    55  46  72 N14       29.98S
$$

ABBREVIATIONS USED IN REMARKS
   TC - TEMPERATURE IN CELSIUS
  WCI - WIND CHILL INDEX
   HX - HEAT INDEX
  VSB - VISIBILITY
$$





USA.gov is the U.S. government's official web portal to all federal, state and local government web resources and services.